www.pogodaiklimat.ru

Погода и климат >> Архив погоды >> Беларусь >> Барановичи


АРХИВ ПОГОДЫ в Барановичах

Время (UTC), дата Ветер
(напр.,м/с)
 
Видим.   Явления Облачность Т
(С)
Тd
(С)
f
(%)
Тe
(С)
Тes
(С)
Комфортность P
(гПа)
Po
(гПа)
Тmin
(С)
Tmax
(С)
R
(мм)
R24
(мм)
S
(см)
09 14.11 ЮЗ 3 8000 м дымка 9/9 600 м
[Sc]
+2.4 +0.5 87 -2 -2 по сезону 1017.7 993.7
12 14.11 З 4 10 км 9/9 1000 м
[Sc]
+3.5 +0.5 81 -1 -1 по сезону 1019.0 995.0
15 14.11 Ю 1 10 км 9/9 1000 м
[Sc]
+2.8 +0.4 84 +1 +1 по сезону 1020.8 996.7
18 14.11 Ю 3 10 км {ливн. осадки} 10/6 600 м
[Sc Ci fib]
+2.2 +1.1 92 -2 -2 по сезону 1021.7 997.6 +3.8 0.5
21 14.11 ЮЗ 3 10 км 10/8
[Frnb Ci fib]
+1.2 -0.2 90 -3 -3 по сезону 1022.7 998.4
00 15.11 Ю 3 10 км 10/0
[Ac trans Ci fib]
+0.6 -1.1 88 -4 -4 по сезону 1022.3 997.9
03 15.11 Ю 3 10 км 9/9 600 м
[Sc]
+0.8 -1.2 86 -4 -4 по сезону 1021.5 997.3
06 15.11 Ю 3 7000 м дымка 9/9 600 м
[Sc]
+1.4 0.0 90 -3 -3 по сезону 1021.9 997.6 +0.5
09 15.11 Ю 4 6000 м дымка 10/10 300 м
[Frnb]
+2.6 +1.8 94 -2 -2 по сезону 1022.8 998.6
12 15.11 Ю 4 6000 м дымка 10/10 300 м
[Frnb]
+3.9 +2.2 89 -1 -1 по сезону 1022.9 998.9
15 15.11 ЮЗ 4 5000 м дымка {ливн. осадки} 10/10 600 м
[Cb calv]
+4.1 +2.8 91 -0 -0 по сезону 1023.4 999.4
18 15.11 Ю 3 7000 м дымка {ливн. осадки} 9/9 600 м
[Sc]
+4.0 +2.6 91 0 0 по сезону 1023.6 999.6 +4.7 0.0
21 15.11 ЮЗ 4 6000 м дымка 9/9 600 м
[Sc]
+4.2 +2.7 90 -0 -0 по сезону 1023.8 999.8
00 16.11 ЮЗ 3 6000 м дымка 9/9 600 м
[Sc]
+4.5 +2.5 87 +1 +1 по сезону 1024.4 1000.4
03 16.11 ЮЗ 3 8000 м дымка 9/9 1000 м
[Sc]
+4.5 +2.6 87 +1 +1 по сезону 1024.8 1000.8
06 16.11 ЮЗ 3 6000 м дымка 9/9 600 м
[Sc]
+4.6 +2.7 87 +1 +1 тепло 1025.7 1001.7 +3.9
09 16.11 ЮЗ 3 6000 м дымка 8/8 1000 м
[Sc]
+5.7 +3.3 85 +2 +3 по сезону 1026.7 1002.8
12 16.11 ЮЗ 3 10 км 9/9 1000 м
[Sc]
+5.9 +2.3 78 +3 +3 по сезону 1026.8 1002.9
15 16.11 ЮЗ 2 10 км 9/9 600 м
[Sc]
+5.2 +2.7 84 +3 +3 тепло 1026.8 1002.8
18 16.11 Ю 1 10 км 10/10 300 м
[Frnb]
+4.6 +2.8 88 +3 +3 тепло 1026.7 1002.7 +10.2
21 16.11 штиль 0 8000 м дымка 10/10 300 м
[Frnb]
+2.8 +1.8 93 +2 +2 тепло 1026.6 1002.4
00 17.11 ЮВ 1 500 м туман ?/? +0.6 0.0 96 -2 -2 по сезону 1026.1 1001.7
03 17.11 Ю 3 1500 м в посл. час туман 10/10 200 м
[Frnb]
+1.5 +1.0 96 -3 -3 по сезону 1024.7 1000.4
06 17.11 Ю 2 6000 м дымка {туман} 9/9 600 м
[Sc]
+2.2 0.0 85 -1 -1 по сезону 1023.6 999.4 +0.4
09 17.11 Ю 3 8000 м дымка 9/9 1000 м
[Sc]
+2.7 +0.3 84 -1 -1 по сезону 1022.9 998.8
12 17.11 Ю 3 10 км 9/0
[Ac und]
+4.1 -1.1 69 +1 +1 по сезону 1021.3 997.3
15 17.11 Ю 3 10 км 9/0
[Ac As]
+3.0 -0.5 78 -1 -1 по сезону 1021.3 997.2
18 17.11 Ю 2 10 км 9/9 600 м
[Sc]
+2.5 -0.2 82 -1 -1 по сезону 1020.9 996.8 +4.7
21 17.11 Ю 3 10 км 9/9 600 м
[Sc]
+2.4 +0.6 88 -2 -2 по сезону 1021.0 996.9
00 18.11 Ю 2 8000 м дымка 9/9 1000 м
[Sc]
+2.3 +1.0 91 -1 -1 по сезону 1020.5 996.4
03 18.11 ЮЗ 2 8000 м дымка 9/9 600 м
[Sc]
+2.1 +0.9 92 -1 -1 по сезону 1019.8 995.7
06 18.11 З 1 8000 м дымка 9/9 600 м
[Sc]
+1.8 +0.5 91 0 0 по сезону 1019.3 995.2 +1.6
09 18.11 Ю 2 8000 м дымка 10/4 600 м
[Sc Ac trans Ci fib]
+2.6 +1.0 89 -1 -0 по сезону 1018.4 994.4
12 18.11 ЮЗ 2 10 км 4/4 600 м
[Sc]
+2.7 -0.6 79 -0 0 по сезону 1016.5 992.5
15 18.11 ЮЗ 3 10 км 9/9 600 м
[Sc]
+1.6 -1.1 82 -3 -3 по сезону 1015.1 991.1
18 18.11 Ю 3 10 км 9/9 600 м
[Sc]
+0.7 -1.4 86 -4 -4 по сезону 1013.5 989.4 +3.4
21 18.11 Ю 3 10 км ясно -0.6 -1.9 91 -6 -6 прохладно 1011.5 987.4
00 19.11 Ю 2 8000 м дымка 9/9 300 м
[Sc]
-0.6 -1.5 94 -4 -4 по сезону 1009.5 985.4
03 19.11 ЮВ 3 8000 м дымка 9/9 300 м
[Sc]
+0.1 -0.8 94 -5 -5 по сезону 1007.0 983.0
06 19.11 Ю 4 6000 м в посл. час ливневой снег 10/10 300 м
[Cb calv]
+1.0 -0.4 90 -4 -4 по сезону 1005.4 981.5 -1.0 0.0
09 19.11 Ю 3 4000 м слабый дождь {снег} 10/0
[As op]
+1.5 +0.2 91 -3 -3 по сезону 1005.1 981.3
12 19.11 Ю 3 7000 м дымка {снег, дождь} 10/10 600 м
[Cb calv]
+2.3 +0.5 88 -2 -2 по сезону 1005.1 981.4
15 19.11 Ю 3 9000 м дымка 9/9 600 м
[Sc]
+2.3 +0.5 88 -2 -2 по сезону 1005.3 981.6
18 19.11 Ю 4 10 км 9/9 600 м
[Sc]
+2.4 0.0 84 -2 -2 по сезону 1005.5 981.8 +2.5 0.4
21 19.11 Ю 3 10 км 9/9 600 м
[Sc]
+2.1 +0.2 87 -2 -2 по сезону 1005.8 982.0
00 20.11 Ю 4 10 км 9/9 1000 м
[Sc]
+2.3 -0.8 80 -3 -3 по сезону 1005.1 981.4
03 20.11 Ю 4 10 км 9/9 1000 м
[Sc]
+1.4 -1.5 81 -4 -4 по сезону 1005.4 981.6
06 20.11 Ю 3 8000 м дымка 10/10 300 м
[Frnb]
+1.0 -0.6 89 -4 -4 по сезону 1006.0 982.1 +1.0
09 20.11 Ю 2 8000 м дымка 9/9 600 м
[Sc]
+1.4 -0.5 87 -2 -2 по сезону 1006.5 982.7
12 20.11 ЮВ 1 6000 м слабый дождь {снег} 10/0
[As op]
+0.6 -0.3 94 -1 -1 по сезону 1006.6 982.7
15 20.11 Ю 1 3800 м дымка {снег, дождь} 10/10 200 м
[Frnb]
+0.5 -0.2 95 -2 -2 по сезону 1007.2 983.3
18 20.11 Ю 1 1000 м дымка {снег, дождь} 10/10 200 м
[St]
+0.3 -0.2 96 -2 -2 по сезону 1007.5 983.5 +1.7 2
21 20.11 ЮЗ 3 1800 м дымка 10/10 200 м
[Frnb]
+0.7 -0.2 94 -4 -4 по сезону 1007.9 984.0
00 21.11 З 2 7000 м в посл. час снег 10/10 300 м
[Frnb]
0.0 -1.0 93 -4 -4 по сезону 1008.6 984.6
03 21.11 З 2 10 км 9/9 600 м
[Sc]
0.0 -1.2 92 -4 -4 по сезону 1009.1 985.1

 

Местоположение метеостанции Барановичи (Брестская область, Беларусь): широта 53.13 долгота 25.97 высота над уровнем моря 193 м.

В архиве по умолчанию представлена погода в Барановичах за последнюю неделю. Архивные данные за месяц целиком и за предыдущие месяцы, начиная с января 2011 года, Вы можете получить, выбрав интересующий диапазон дат из раскрывающегося списка и нажав кнопку "Ввод!".

Внимание! Время в таблицах - всемирное. Для получения местного времени необходимо прибавить поправку, которая в Барановичах равна 3 ч.

Смотрите также архив погоды в соседних городах и на ближайших метеорологических станциях:

Погода в Ганцевичах (Брестская область, Беларусь) (53 км)
Погода в Новогрудке (Гродненская область, Беларусь) (53 км)
Погода в Ивацевичах (Брестская область, Беларусь) (63 км)
Погода в Столбцах (Минская область, Беларусь) (64 км)
Погода в Лиде (Гродненская область, Беларусь) (96 км)
Погода в Волковыске (Гродненская область, Беларусь) (101 км)
Погода в Полесской (Брестская область, Беларусь) (105 км)
Погода в Слуцке (Минская область, Беларусь) (106 км)
Погода в Пинске (Брестская область, Беларусь) (113 км)
Погода в Воложине (Минская область, Беларусь) (113 км)

Пояснения к столбцам:

Ветер - указаны скорость ветра в м/с - средняя за 10 мин, порывы в срок и между сроками (в фигурных скобках) и направление, откуда дует ветер: С - северный, СВ - северо-восточный, В - восточный, ЮВ - юго-восточный, Ю - южный, ЮЗ - юго-западный, З - западный, СЗ - северо-западный.
Видимость - горизонтальная дальность видимости в метрах или километрах. При видимости от 1 до 10 км при отсутствии осадков обычно наблюдается дымка, при ухудшении видимости до 1 км и менее - туман. В сухую погоду видимость может ухудшаться дымом, пылью или мглою.
Явления - указаны атмосферные явления, наблюдавшиеся в срок или в последний час перед сроком; фигурными скобками обозначены явления, наблюдавшиеся между сроками (за 1-3 часа до срока); квадратными скобками обозначены град или гололедные отложения с указанием их диаметра в мм.
Облачность - указаны через наклонную черту общая и нижняя облачность в баллах и высота нижней границы облаков в метрах; квадратными скобками обозначены формы облаков: Ci - перистые, Cs - перисто-слоистые, Cc - перисто-кучевые, Ac - высококучевые, As - высокослоистые, Sc - слоисто-кучевые, Ns - слоисто-дождевые, Cu - кучевые, Cb - кучево-дождевые. Подробнее классификацию облаков см. в Атласе облаков (PDF).
T - Температура воздуха - температура, измеренная на высоте 2 м над землей.
Td - Температура точки росы - температура, при понижении до которой содержащийся в воздухе водяной пар достигнет насыщения.
f - Относительная влажность воздуха - влажноcть воздуха, измеренная на высоте 2 м над землей.
Te - Эффективная температура - температура, которую ощущает одетый по сезону человек в тени. Характеристика душности погоды. При расчете учитывается влияние влажности воздуха и скорости ветра на теплоощущения человека.
Tes - Эффективная температура на солнце - температура, которую ощущает человек, с поправкой на солнечный нагрев. Характеристика знойности погоды. Зависит от высоты солнца над горизонтом, облачности и скорости ветра. Ночью, в пасмурную погоду, а также при ветре 12 м/с и более поправка равна нулю.
P - Атмосферное давление - приведенное к уровню моря атмосферное давление.
Po - Атмосферное давление - измеренное на уровне метеостанции атмосферное давление.
Tmin - Минимальная температура - минимум температуры воздуха на высоте 2 м над землей.
Tmax - Максимальная температура - максимум температуры воздуха на высоте 2 м над землей.
R - Количество осадков - Количество выпавших осадков за период времени, мм. При наведении курсора мыши на число - период времени, за который выпало указанное количество осадков.
R24 - Количество осадков - Количество выпавших осадков за 24 часа, мм.
S - Снежный покров - Высота снежного покрова, см. При наведении курсора мыши на число - состояние снежного покрова и степень покрытия местности в баллах.